Time,TemperatureF,DewpointF,PressureIn,WindDirection,WindDirectionDegrees,WindSpeedMPH,WindSpeedGustMPH,Humidity,HourlyPrecipIn,Conditions,Clouds,dailyrainin,SolarRadiationWatts/m^2,SoftwareType,DateUTC
2014-09-22 00:00:00,65.3,64.4,29.44,WNW,295,0.0,0.0,97,0.00,,,0.07,0.00,VWS V15.00,2014-09-22 04:00:00,
2014-09-22 00:05:00,65.3,64.7,29.44,WNW,295,0.0,0.0,98,0.00,,,0.00,0.00,VWS V15.00,2014-09-22 04:05:00,
2014-09-22 00:10:00,65.2,64.6,29.44,WNW,294,0.0,0.0,98,0.00,,,0.00,0.00,VWS V15.00,2014-09-22 04:10:00,
2014-09-22 00:15:00,65.2,64.6,29.44,WNW,292,0.0,0.0,98,0.00,,,0.00,0.00,VWS V15.00,2014-09-22 04:15:00,
2014-09-22 00:20:00,65.2,64.6,29.43,NW,304,0.0,0.0,98,0.00,,,0.00,0.00,VWS V15.00,2014-09-22 04:20:00,
2014-09-22 00:25:00,65.2,64.6,29.43,NW,315,0.0,0.0,98,0.00,,,0.00,0.00,VWS V15.00,2014-09-22 04:25:00,
2014-09-22 00:30:00,65.2,64.6,29.43,NW,309,0.0,0.0,98,0.00,,,0.00,0.00,VWS V15.00,2014-09-22 04:30:00,
2014-09-22 00:32:00,65.0,64.4,29.42,NW,308,0.0,0.0,98,0.00,,,0.00,0.00,VWS V15.00,2014-09-22 04:32:00,
2014-09-22 00:37:00,65.0,64.4,29.42,NW,308,0.0,0.0,98,0.00,,,0.00,0.00,VWS V15.00,2014-09-22 04:37:00,
2014-09-22 00:41:00,65.0,64.4,29.42,NW,309,0.0,1.0,98,0.00,,,0.00,0.00,VWS V15.00,2014-09-22 04:41:00,
2014-09-22 00:46:00,65.0,64.4,29.42,NW,306,0.0,1.0,98,0.00,,,0.00,0.00,VWS V15.00,2014-09-22 04:46:00,
2014-09-22 00:51:00,65.0,64.4,29.42,NW,309,1.0,1.0,98,0.00,,,0.00,0.00,VWS V15.00,2014-09-22 04:51:00,
2014-09-22 00:56:00,65.0,64.4,29.42,NW,309,0.0,1.0,98,0.00,,,0.00,0.00,VWS V15.00,2014-09-22 04:56:00,
2014-09-22 01:01:00,65.0,64.4,29.42,NW,306,1.0,2.0,98,0.00,,,0.00,0.00,VWS V15.00,2014-09-22 05:01:00,
2014-09-22 01:06:00,65.0,64.4,29.42,NW,306,0.0,1.0,98,0.00,,,0.00,0.00,VWS V15.00,2014-09-22 05:06:00,
2014-09-22 01:11:00,65.0,64.4,29.42,NW,312,0.0,1.0,98,0.00,,,0.00,0.00,VWS V15.00,2014-09-22 05:11:00,
2014-09-22 01:16:00,65.0,64.4,29.42,SW,215,0.0,1.0,98,0.01,,,0.01,0.00,VWS V15.00,2014-09-22 05:16:00,
2014-09-22 01:21:00,65.0,64.4,29.41,SSW,209,1.0,1.0,98,0.01,,,0.01,0.00,VWS V15.00,2014-09-22 05:21:00,
2014-09-22 01:26:00,65.0,64.4,29.41,West,280,2.0,2.0,98,0.01,,,0.01,0.00,VWS V15.00,2014-09-22 05:26:00,
2014-09-22 01:31:00,65.2,64.6,29.41,SW,233,0.0,2.0,98,0.01,,,0.01,0.00,VWS V15.00,2014-09-22 05:31:00,
2014-09-22 01:36:00,65.2,64.6,29.41,SE,136,1.0,1.0,98,0.01,,,0.01,0.00,VWS V15.00,2014-09-22 05:36:00,
2014-09-22 01:41:00,65.0,64.4,29.41,SE,144,1.0,2.0,98,0.01,,,0.01,0.00,VWS V15.00,2014-09-22 05:41:00,
2014-09-22 01:46:00,65.0,64.4,29.41,ENE,59,1.0,2.0,98,0.01,,,0.01,0.00,VWS V15.00,2014-09-22 05:46:00,
2014-09-22 01:51:00,65.0,64.4,29.40,East,99,0.0,1.0,98,0.01,,,0.01,0.00,VWS V15.00,2014-09-22 05:51:00,
2014-09-22 01:53:00,65.0,64.4,29.40,ESE,107,0.0,1.0,98,0.01,,,0.01,0.00,VWS V15.00,2014-09-22 05:53:00,
2014-09-22 01:55:00,65.0,64.4,29.40,ESE,107,0.0,1.0,98,0.01,,,0.01,0.00,VWS V15.00,2014-09-22 05:55:00,
2014-09-22 02:00:00,65.0,64.4,29.40,WSW,250,1.0,1.0,98,0.01,,,0.01,0.00,VWS V15.00,2014-09-22 06:00:00,
2014-09-22 02:05:00,65.0,64.4,29.39,WSW,250,0.0,1.0,98,0.01,,,0.01,0.00,VWS V15.00,2014-09-22 06:05:00,
2014-09-22 02:10:00,65.0,64.4,29.39,WSW,253,0.0,1.0,98,0.01,,,0.01,0.00,VWS V15.00,2014-09-22 06:10:00,
2014-09-22 02:15:00,65.0,64.4,29.39,WSW,250,0.0,2.0,98,0.01,,,0.01,0.00,VWS V15.00,2014-09-22 06:15:00,
2014-09-22 02:20:00,65.0,64.4,29.38,WSW,247,1.0,1.0,98,0.00,,,0.01,0.00,VWS V15.00,2014-09-22 06:20:00,
2014-09-22 02:25:00,65.0,64.4,29.38,WNW,285,1.0,2.0,98,0.00,,,0.01,0.00,VWS V15.00,2014-09-22 06:25:00,
2014-09-22 02:30:00,65.0,64.4,29.38,WNW,292,2.0,2.0,98,0.00,,,0.01,0.00,VWS V15.00,2014-09-22 06:30:00,
2014-09-22 02:35:00,65.0,64.4,29.37,WNW,285,0.0,2.0,98,0.00,,,0.01,0.00,VWS V15.00,2014-09-22 06:35:00,
2014-09-22 02:40:00,65.0,64.4,29.37,WNW,296,2.0,2.0,98,0.00,,,0.01,0.00,VWS V15.00,2014-09-22 06:40:00,
2014-09-22 02:45:00,65.0,64.4,29.37,SW,236,4.0,4.0,98,0.00,,,0.01,0.00,VWS V15.00,2014-09-22 06:45:00,
2014-09-22 02:50:00,65.0,64.4,29.37,West,281,1.0,1.0,98,0.00,,,0.01,0.00,VWS V15.00,2014-09-22 06:50:00,
2014-09-22 02:55:00,65.0,64.4,29.37,NW,312,1.0,7.0,98,0.00,,,0.01,0.00,VWS V15.00,2014-09-22 06:55:00,
2014-09-22 03:00:00,65.0,64.4,29.37,NW,308,0.0,7.0,98,0.00,,,0.01,0.00,VWS V15.00,2014-09-22 07:00:00,
2014-09-22 03:05:00,65.2,64.6,29.37,NNW,332,4.0,4.0,98,0.00,,,0.01,0.00,VWS V15.00,2014-09-22 07:05:00,
2014-09-22 03:10:00,65.2,64.6,29.37,NW,315,1.0,4.0,98,0.00,,,0.01,0.00,VWS V15.00,2014-09-22 07:10:00,
2014-09-22 03:15:00,65.2,64.6,29.37,SW,224,1.0,4.0,98,0.00,,,0.01,0.00,VWS V15.00,2014-09-22 07:15:00,
2014-09-22 03:20:00,65.2,64.6,29.37,South,188,1.0,4.0,98,0.00,,,0.01,0.00,VWS V15.00,2014-09-22 07:20:00,
2014-09-22 03:25:00,65.2,64.6,29.37,NW,319,2.0,6.0,98,0.00,,,0.01,0.00,VWS V15.00,2014-09-22 07:25:00,
2014-09-22 03:30:00,65.0,64.4,29.37,North,354,1.0,6.0,98,0.00,,,0.01,0.00,VWS V15.00,2014-09-22 07:30:00,
2014-09-22 03:35:00,64.8,64.2,29.38,North,354,1.0,9.0,98,0.00,,,0.01,0.00,VWS V15.00,2014-09-22 07:35:00,
2014-09-22 03:40:00,64.3,63.7,29.38,North,354,1.0,9.0,98,0.00,,,0.01,0.00,VWS V15.00,2014-09-22 07:40:00,
2014-09-22 03:45:00,64.0,63.4,29.38,NNW,336,4.0,9.0,98,0.00,,,0.01,0.00,VWS V15.00,2014-09-22 07:45:00,
2014-09-22 03:50:00,63.7,63.1,29.38,North,352,1.0,2.0,98,0.00,,,0.01,0.00,VWS V15.00,2014-09-22 07:50:00,
2014-09-22 03:55:00,63.2,62.6,29.38,NW,318,4.0,4.0,98,0.00,,,0.01,0.00,VWS V15.00,2014-09-22 07:55:00,
2014-09-22 04:00:00,62.7,61.8,29.38,NNW,335,1.0,9.0,97,0.00,,,0.01,0.00,VWS V15.00,2014-09-22 08:00:00,
2014-09-22 04:05:00,62.3,61.4,29.38,North,356,6.0,6.0,97,0.00,,,0.01,0.00,VWS V15.00,2014-09-22 08:05:00,
2014-09-22 04:10:00,62.0,61.1,29.38,North,356,1.0,8.0,97,0.00,,,0.01,0.00,VWS V15.00,2014-09-22 08:10:00,
2014-09-22 04:15:00,61.6,60.7,29.38,NW,316,4.0,8.0,97,0.00,,,0.01,0.00,VWS V15.00,2014-09-22 08:15:00,
2014-09-22 04:20:00,61.6,60.7,29.39,North,354,6.0,6.0,97,0.00,,,0.01,0.00,VWS V15.00,2014-09-22 08:20:00,
2014-09-22 04:22:00,61.5,60.6,29.39,North,359,1.0,6.0,97,0.00,,,0.01,0.00,VWS V15.00,2014-09-22 08:22:00,
2014-09-22 04:27:00,61.3,60.4,29.39,NW,320,1.0,6.0,97,0.00,,,0.01,0.00,VWS V15.00,2014-09-22 08:27:00,
2014-09-22 04:31:00,61.3,60.4,29.39,NW,306,1.0,6.0,97,0.00,,,0.01,0.00,VWS V15.00,2014-09-22 08:31:00,
2014-09-22 04:36:00,61.2,60.3,29.39,NW,320,0.0,8.0,97,0.00,,,0.01,0.00,VWS V15.00,2014-09-22 08:36:00,
2014-09-22 04:40:00,61.2,60.3,29.39,NW,318,1.0,8.0,97,0.00,,,0.01,0.00,VWS V15.00,2014-09-22 08:40:00,
2014-09-22 04:45:00,61.0,60.2,29.39,NW,322,4.0,8.0,97,0.00,,,0.01,0.00,VWS V15.00,2014-09-22 08:45:00,
2014-09-22 04:50:00,61.0,59.9,29.40,North,356,1.0,4.0,96,0.00,,,0.01,0.00,VWS V15.00,2014-09-22 08:50:00,
2014-09-22 04:55:00,60.9,59.8,29.40,NNW,340,0.0,7.0,96,0.00,,,0.01,0.00,VWS V15.00,2014-09-22 08:55:00,
2014-09-22 05:00:00,60.9,59.8,29.40,ENE,62,1.0,7.0,96,0.00,,,0.01,0.00,VWS V15.00,2014-09-22 09:00:00,
2014-09-22 05:05:00,60.7,59.6,29.40,North,357,1.0,4.0,96,0.00,,,0.01,0.00,VWS V15.00,2014-09-22 09:05:00,
2014-09-22 05:10:00,60.7,59.6,29.40,North,352,1.0,4.0,96,0.00,,,0.01,0.00,VWS V15.00,2014-09-22 09:10:00,
2014-09-22 05:15:00,60.5,59.1,29.40,NNW,342,2.0,4.0,95,0.00,,,0.01,0.00,VWS V15.00,2014-09-22 09:15:00,
2014-09-22 05:20:00,60.5,59.1,29.42,NW,320,1.0,7.0,95,0.00,,,0.01,0.00,VWS V15.00,2014-09-22 09:20:00,
2014-09-22 05:25:00,60.4,58.7,29.42,NNW,344,1.0,7.0,94,0.00,,,0.01,0.00,VWS V15.00,2014-09-22 09:25:00,
2014-09-22 05:30:00,60.2,58.5,29.42,ENE,78,4.0,7.0,94,0.00,,,0.01,0.00,VWS V15.00,2014-09-22 09:30:00,
2014-09-22 05:35:00,60.1,58.1,29.42,North,356,1.0,4.0,93,0.00,,,0.01,0.00,VWS V15.00,2014-09-22 09:35:00,
2014-09-22 05:40:00,59.9,57.9,29.42,NNW,328,2.0,4.0,93,0.00,,,0.01,0.00,VWS V15.00,2014-09-22 09:40:00,
2014-09-22 05:45:00,59.9,57.6,29.42,North,350,1.0,7.0,92,0.00,,,0.01,0.00,VWS V15.00,2014-09-22 09:45:00,
2014-09-22 05:50:00,59.8,57.5,29.43,NNW,343,2.0,4.0,92,0.00,,,0.01,0.00,VWS V15.00,2014-09-22 09:50:00,
2014-09-22 05:55:00,59.6,57.3,29.43,NW,323,0.0,8.0,92,0.00,,,0.01,0.00,VWS V15.00,2014-09-22 09:55:00,
2014-09-22 06:00:00,59.6,57.3,29.43,NNW,333,1.0,8.0,92,0.00,,,0.01,0.00,VWS V15.00,2014-09-22 10:00:00,
2014-09-22 06:05:00,59.5,57.2,29.43,NNW,343,4.0,4.0,92,0.00,,,0.01,0.00,VWS V15.00,2014-09-22 10:05:00,
2014-09-22 06:10:00,59.5,57.2,29.43,North,354,2.0,4.0,92,0.00,,,0.01,0.00,VWS V15.00,2014-09-22 10:10:00,
2014-09-22 06:15:00,59.3,57.0,29.43,NNW,342,2.0,9.0,92,0.00,,,0.01,0.00,VWS V15.00,2014-09-22 10:15:00,
2014-09-22 06:20:00,59.3,57.0,29.45,North,352,2.0,4.0,92,0.00,,,0.01,0.00,VWS V15.00,2014-09-22 10:20:00,
2014-09-22 06:25:00,59.2,56.9,29.45,NW,322,4.0,6.0,92,0.00,,,0.01,0.00,VWS V15.00,2014-09-22 10:25:00,
2014-09-22 06:30:00,59.2,56.9,29.45,NW,315,6.0,6.0,92,0.00,,,0.01,0.00,VWS V15.00,2014-09-22 10:30:00,
2014-09-22 06:35:00,59.2,56.6,29.46,NW,316,4.0,9.0,91,0.00,,,0.01,5.00,VWS V15.00,2014-09-22 10:35:00,
2014-09-22 06:40:00,59.0,56.4,29.46,North,356,0.0,9.0,91,0.00,,,0.01,7.00,VWS V15.00,2014-09-22 10:40:00,
2014-09-22 06:45:00,59.0,56.4,29.46,North,353,2.0,9.0,91,0.00,,,0.01,7.00,VWS V15.00,2014-09-22 10:45:00,
2014-09-22 06:50:00,58.9,56.3,29.46,NW,308,1.0,13.0,91,0.00,,,0.01,7.00,VWS V15.00,2014-09-22 10:50:00,
2014-09-22 06:55:00,58.9,56.3,29.46,NW,316,4.0,13.0,91,0.00,,,0.01,12.00,VWS V15.00,2014-09-22 10:55:00,
2014-09-22 07:00:00,58.9,56.3,29.46,ENE,69,2.0,13.0,91,0.00,,,0.01,14.00,VWS V15.00,2014-09-22 11:00:00,
2014-09-22 07:05:00,58.9,56.3,29.46,NNW,337,4.0,4.0,91,0.00,,,0.01,16.00,VWS V15.00,2014-09-22 11:05:00,
2014-09-22 07:10:00,58.9,56.0,29.46,North,356,1.0,7.0,90,0.00,,,0.01,16.00,VWS V15.00,2014-09-22 11:10:00,
2014-09-22 07:15:00,58.9,56.0,29.46,ENE,76,1.0,8.0,90,0.00,,,0.01,18.00,VWS V15.00,2014-09-22 11:15:00,
2014-09-22 07:20:00,58.9,56.0,29.47,NW,312,8.0,8.0,90,0.00,,,0.01,19.00,VWS V15.00,2014-09-22 11:20:00,
2014-09-22 07:25:00,59.0,55.8,29.47,ESE,104,1.0,8.0,89,0.00,,,0.01,21.00,VWS V15.00,2014-09-22 11:25:00,
2014-09-22 07:30:00,59.0,55.8,29.47,North,354,4.0,8.0,89,0.00,,,0.01,21.00,VWS V15.00,2014-09-22 11:30:00,
2014-09-22 07:35:00,59.0,55.8,29.47,ENE,64,1.0,14.0,89,0.00,,,0.01,23.00,VWS V15.00,2014-09-22 11:35:00,
2014-09-22 07:40:00,59.2,55.7,29.47,NW,322,6.0,14.0,88,0.00,,,0.01,23.00,VWS V15.00,2014-09-22 11:40:00,
2014-09-22 07:45:00,59.3,55.8,29.47,NNW,330,1.0,14.0,88,0.00,,,0.01,26.00,VWS V15.00,2014-09-22 11:45:00,
2014-09-22 07:50:00,59.3,55.8,29.48,North,353,8.0,9.0,88,0.00,,,0.01,26.00,VWS V15.00,2014-09-22 11:50:00,
2014-09-22 07:55:00,59.5,56.0,29.48,North,357,1.0,9.0,88,0.00,,,0.01,28.00,VWS V15.00,2014-09-22 11:55:00,
2014-09-22 08:00:00,59.6,55.7,29.48,South,188,1.0,9.0,87,0.00,,,0.01,28.00,VWS V15.00,2014-09-22 12:00:00,
2014-09-22 08:05:00,59.8,55.9,29.48,North,354,1.0,7.0,87,0.00,,,0.01,32.00,VWS V15.00,2014-09-22 12:05:00,
2014-09-22 08:10:00,59.9,55.7,29.48,SSE,168,6.0,8.0,86,0.00,,,0.01,32.00,VWS V15.00,2014-09-22 12:10:00,
2014-09-22 08:15:00,59.9,55.4,29.48,NNW,342,4.0,10.0,85,0.00,,,0.01,42.00,VWS V15.00,2014-09-22 12:15:00,
2014-09-22 08:20:00,60.2,55.7,29.48,NNW,335,4.0,7.0,85,0.00,,,0.01,46.00,VWS V15.00,2014-09-22 12:20:00,
2014-09-22 08:25:00,60.4,55.2,29.48,NNW,336,14.0,14.0,83,0.00,,,0.01,46.00,VWS V15.00,2014-09-22 12:25:00,
2014-09-22 08:30:00,60.7,54.8,29.48,WNW,294,8.0,14.0,81,0.00,,,0.01,46.00,VWS V15.00,2014-09-22 12:30:00,
2014-09-22 08:35:00,61.0,54.8,29.49,NNW,347,2.0,8.0,80,0.00,,,0.01,290.00,VWS V15.00,2014-09-22 12:35:00,
2014-09-22 08:40:00,61.5,54.9,29.49,WNW,298,8.0,8.0,79,0.00,,,0.01,313.00,VWS V15.00,2014-09-22 12:40:00,
2014-09-22 08:45:00,62.0,55.1,29.49,NW,304,4.0,13.0,78,0.00,,,0.01,333.00,VWS V15.00,2014-09-22 12:45:00,
2014-09-22 08:50:00,62.3,55.0,29.49,West,275,8.0,13.0,77,0.00,,,0.01,343.00,VWS V15.00,2014-09-22 12:50:00,
2014-09-22 08:55:00,62.7,54.7,29.49,WNW,295,2.0,13.0,75,0.00,,,0.01,348.00,VWS V15.00,2014-09-22 12:55:00,
2014-09-22 09:00:00,63.2,55.2,29.49,WSW,248,4.0,13.0,75,0.00,,,0.01,380.00,VWS V15.00,2014-09-22 13:00:00,
2014-09-22 09:05:00,63.5,55.1,29.50,WNW,298,7.0,7.0,74,0.00,,,0.01,380.00,VWS V15.00,2014-09-22 13:05:00,
2014-09-22 09:10:00,63.7,54.9,29.50,North,357,7.0,9.0,73,0.00,,,0.01,114.00,VWS V15.00,2014-09-22 13:10:00,
2014-09-22 09:15:00,63.9,54.7,29.50,SW,229,2.0,16.0,72,0.00,,,0.01,79.00,VWS V15.00,2014-09-22 13:15:00,
2014-09-22 09:20:00,64.0,55.2,29.50,North,357,2.0,10.0,73,0.00,,,0.01,79.00,VWS V15.00,2014-09-22 13:20:00,
2014-09-22 09:25:00,64.5,55.3,29.50,WNW,282,2.0,11.0,72,0.00,,,0.01,501.00,VWS V15.00,2014-09-22 13:25:00,
2014-09-22 09:30:00,64.8,55.6,29.50,NW,326,9.0,11.0,72,0.00,,,0.01,146.00,VWS V15.00,2014-09-22 13:30:00,
2014-09-22 09:35:00,65.2,55.2,29.50,NW,326,2.0,10.0,70,0.00,,,0.01,501.00,VWS V15.00,2014-09-22 13:35:00,
2014-09-22 09:40:00,65.6,56.0,29.50,NNW,332,4.0,10.0,71,0.00,,,0.01,549.00,VWS V15.00,2014-09-22 13:40:00,
2014-09-22 09:45:00,66.0,55.5,29.50,NW,326,4.0,18.0,69,0.00,,,0.01,524.00,VWS V15.00,2014-09-22 13:45:00,
2014-09-22 09:50:00,66.3,55.0,29.51,NW,322,2.0,9.0,67,0.00,,,0.01,519.00,VWS V15.00,2014-09-22 13:50:00,
2014-09-22 09:55:00,66.6,55.7,29.51,NW,312,6.0,15.0,68,0.00,,,0.01,519.00,VWS V15.00,2014-09-22 13:55:00,
2014-09-22 10:00:00,66.9,56.0,29.51,NW,319,7.0,15.0,68,0.00,,,0.01,519.00,VWS V15.00,2014-09-22 14:00:00,
2014-09-22 10:05:00,67.4,56.1,29.51,North,349,2.0,8.0,67,0.00,,,0.01,519.00,VWS V15.00,2014-09-22 14:05:00,
2014-09-22 10:10:00,67.8,56.0,29.51,NW,305,9.0,10.0,66,0.00,,,0.01,565.00,VWS V15.00,2014-09-22 14:10:00,
2014-09-22 10:15:00,67.8,55.2,29.51,North,4,8.0,14.0,64,0.00,,,0.01,565.00,VWS V15.00,2014-09-22 14:15:00,
2014-09-22 10:20:00,68.1,55.5,29.51,NW,325,8.0,13.0,64,0.00,,,0.01,565.00,VWS V15.00,2014-09-22 14:20:00,
2014-09-22 10:25:00,68.1,55.5,29.51,NNW,346,2.0,13.0,64,0.00,,,0.01,642.00,VWS V15.00,2014-09-22 14:25:00,
2014-09-22 10:30:00,68.4,54.9,29.51,North,8,6.0,14.0,62,0.00,,,0.01,656.00,VWS V15.00,2014-09-22 14:30:00,
2014-09-22 10:35:00,68.6,54.2,29.52,NNW,336,2.0,10.0,60,0.00,,,0.01,656.00,VWS V15.00,2014-09-22 14:35:00,
2014-09-22 10:40:00,68.6,54.6,29.52,NNW,330,8.0,10.0,61,0.00,,,0.01,656.00,VWS V15.00,2014-09-22 14:40:00,
2014-09-22 10:45:00,68.3,53.9,29.52,North,354,6.0,15.0,60,0.00,,,0.01,656.00,VWS V15.00,2014-09-22 14:45:00,
2014-09-22 10:50:00,68.1,53.7,29.52,WSW,256,7.0,7.0,60,0.00,,,0.01,656.00,VWS V15.00,2014-09-22 14:50:00,
2014-09-22 10:55:00,68.3,53.9,29.52,NNE,30,7.0,10.0,60,0.00,,,0.01,656.00,VWS V15.00,2014-09-22 14:55:00,
2014-09-22 11:00:00,67.9,53.5,29.52,North,0,16.0,16.0,60,0.00,,,0.01,656.00,VWS V15.00,2014-09-22 15:00:00,
2014-09-22 11:05:00,67.3,51.6,29.54,North,357,4.0,20.0,57,0.00,,,0.01,656.00,VWS V15.00,2014-09-22 15:05:00,
2014-09-22 11:10:00,66.4,51.7,29.54,North,357,8.0,20.0,59,0.00,,,0.01,106.00,VWS V15.00,2014-09-22 15:10:00,
2014-09-22 11:15:00,65.3,51.5,29.54,North,354,4.0,20.0,61,0.00,,,0.01,195.00,VWS V15.00,2014-09-22 15:15:00,
2014-09-22 11:20:00,64.3,51.9,29.56,North,357,6.0,13.0,64,0.00,,,0.01,232.00,VWS V15.00,2014-09-22 15:20:00,
2014-09-22 11:25:00,63.9,51.9,29.56,North,357,4.0,15.0,65,0.00,,,0.01,239.00,VWS V15.00,2014-09-22 15:25:00,
2014-09-22 11:30:00,63.7,52.5,29.56,North,357,8.0,15.0,67,0.00,,,0.01,197.00,VWS V15.00,2014-09-22 15:30:00,
2014-09-22 11:35:00,63.4,52.3,29.58,NW,319,10.0,16.0,67,0.00,,,0.01,197.00,VWS V15.00,2014-09-22 15:35:00,
2014-09-22 11:40:00,63.2,52.1,29.58,WNW,291,7.0,17.0,67,0.00,,,0.01,197.00,VWS V15.00,2014-09-22 15:40:00,
2014-09-22 11:45:00,62.7,51.6,29.58,NW,311,9.0,17.0,67,0.00,,,0.01,197.00,VWS V15.00,2014-09-22 15:45:00,
2014-09-22 11:50:00,62.9,52.2,29.58,NW,319,7.0,11.0,68,0.00,,,0.01,197.00,VWS V15.00,2014-09-22 15:50:00,